STARLINK-35533

Last updated on Fri Dec 12 2025 00:02:05 GMT+0000 (Coordinated Universal Time)

1 66429U 25259H 25345.50245292 .00103951 00000+0 24605-2 0 9995 2 66429 43.0055 55.0272 0002023 268.2744 91.7881 15.40717797 5970
UTC large
Height (km)
Speed (km/s)
/
Latitude / Longitude
Inclination (degrees)
Orbital Period (minutes)
Azimuth
Elevation
Range (km)
Doppler Factor

Next 0 passes for location: London (51.5072 / 0.1276)

Sorry there are no passes over London.